Date,Time,M06 Barometric Pressure (AVG),M06 Temperature (AVG),M06 WIND SPEED (AVG),M06 Relative Humidity (AVG),M06 Precipitation (SUM),M06 Pyranometer 0 - 2000 W/m² (AVG),ΤΑΥΡΟΝΙΤΗΣ Duration (SUM), ΤΑΥΡΟΝΙΤΗΣ WIND DIRECTION (AVG),ΤΑΥΡΟΝΙΤΗΣ Daily ETo
08/11/2020,23:00:00,984.0,15.1,2.3,81.2,3.1,30.6,262.6,117.8,0.77
09/11/2020,23:00:00,982.1,15.0,2.4,90.7,7.4,26.6,385.1,210.2,0.30
10/11/2020,23:00:00,981.1,15.6,4.2,92.4,35.5,11.1,707.4,115.2,0.36
11/11/2020,23:00:00,984.1,14.9,3.7,93.4,59.4,11.7,577.1,114.9,0.22
12/11/2020,23:00:00,986.6,15.1,7.8,82.1,2.5,60.6,23.4,239.0,1.26
13/11/2020,23:00:00,986.8,15.0,5.2,82.6,0.0,102.0,0.0,297.3,1.51
14/11/2020,23:00:00,986.0,14.8,6.4,83.9,1.0,127.4,57.5,214.1,1.55
15/11/2020,23:00:00,985.8,14.4,7.5,72.7,0.0,126.3,2.5,208.3,1.86
16/11/2020,23:00:00,984.7,14.3,3.5,72.0,0.0,131.1,0.0,264.4,1.80
17/11/2020,23:00:00,985.4,15.3,3.5,83.4,0.0,122.1,0.0,288.1,1.59
18/11/2020,23:00:00,985.8,14.8,9.1,80.6,0.2,75.3,28.8,214.2,1.51
19/11/2020,23:00:00,980.9,13.2,6.7,81.4,1.7,30.2,202.6,252.8,1.30
20/11/2020,23:00:00,976.5,11.5,4.4,84.7,7.7,19.1,468.9,100.1,0.67
21/11/2020,23:00:00,981.8,12.6,2.2,80.3,0.9,42.4,77.2,197.3,0.72
22/11/2020,23:00:00,987.6,12.9,1.5,81.5,0.0,32.4,2.5,179.0,0.51
23/11/2020,23:00:00,987.2,13.1,2.0,80.8,0.0,28.1,0.0,154.2,0.55
24/11/2020,23:00:00,982.5,12.9,1.7,85.4,2.3,19.0,201.4,177.5,0.31
25/11/2020,23:00:00,981.1,12.3,7.6,77.4,0.3,27.5,37.4,259.7,1.46
26/11/2020,23:00:00,982.1,12.3,4.9,77.9,0.0,29.5,1.2,216.5,1.04
27/11/2020,23:00:00,983.0,12.4,2.2,81.1,0.0,25.0,0.0,197.4,0.57
28/11/2020,23:00:00,983.2,12.6,4.2,78.1,0.0,121.7,0.0,245.2,1.47
29/11/2020,23:00:00,979.3,13.4,2.4,76.3,4.8,39.6,201.4,231.5,0.78
30/11/2020,23:00:00,975.7,13.0,2.7,84.9,6.7,25.9,181.2,116.9,0.62
01/12/2020,23:00:00,978.5,12.5,2.4,93.0,16.8,10.3,323.9,46.3,0.15
02/12/2020,23:00:00,981.1,12.6,3.4,88.8,1.1,64.1,71.1,84.4,0.84
03/12/2020,23:00:00,979.4,12.4,3.8,87.8,1.4,74.3,88.8,217.1,0.81
04/12/2020,23:00:00,975.2,14.2,3.5,81.9,6.6,76.4,291.4,182.4,1.09
05/12/2020,23:00:00,978.0,13.7,6.2,84.4,0.3,91.4,12.3,222.4,1.05
06/12/2020,23:00:00,976.6,14.2,3.7,74.7,0.0,117.3,0.0,253.6,1.53
07/12/2020,23:00:00,976.6,14.2,3.5,74.3,0.0,118.3,0.0,254.8,0.06
08/12/2020,23:00:00,979.6,13.5,4.6,77.0,0.9,101.0,91.2,178.8,1.33
09/12/2020,23:00:00,980.1,15.0,9.4,66.8,0.0,75.2,3.7,132.0,2.39
10/12/2020,23:00:00,975.3,13.8,11.5,72.8,19.8,32.8,546.6,136.7,2.63
11/12/2020,23:00:00,973.8,12.7,5.6,81.1,9.9,61.8,369.6,161.0,1.17
12/12/2020,23:00:00,967.0,13.6,3.9,85.7,16.1,55.4,591.2,177.3,0.90
13/12/2020,23:00:00,962.7,14.2,5.4,84.1,18.1,62.5,457.1,164.4,1.06
14/12/2020,23:00:00,964.4,12.2,1.7,94.0,16.9,27.7,566.1,122.0,0.37
15/12/2020,23:00:00,977.2,12.1,3.3,92.3,3.9,10.5,339.9,81.7,0.22
16/12/2020,23:00:00,984.4,12.2,2.5,87.3,0.7,38.6,99.8,96.7,0.62
17/12/2020,23:00:00,986.6,12.5,1.0,80.9,0.0,45.5,3.7,196.1,0.73
18/12/2020,23:00:00,987.6,13.0,3.2,78.9,0.0,68.7,0.0,185.8,0.77
19/12/2020,23:00:00,988.0,12.7,2.2,81.2,0.0,63.9,0.0,163.1,0.92
20/12/2020,23:00:00,987.2,12.5,4.2,79.1,0.0,81.1,0.0,168.4,1.13
21/12/2020,23:00:00,986.9,12.0,0.8,84.7,0.4,38.7,57.5,124.3,0.49
22/12/2020,23:00:00,987.3,11.8,2.4,76.4,0.0,74.3,2.5,217.3,0.90
23/12/2020,23:00:00,986.9,12.0,6.3,77.9,0.0,105.0,0.0,249.6,1.20
24/12/2020,23:00:00,984.7,13.3,3.3,74.3,0.0,107.2,0.0,240.3,1.48
25/12/2020,23:00:00,982.7,15.2,3.7,76.6,0.0,60.7,0.0,202.4,1.16
26/12/2020,23:00:00,981.7,15.5,4.9,73.0,0.0,107.0,0.0,171.4,2.06
27/12/2020,23:00:00,978.3,14.9,6.7,69.3,7.7,62.0,86.3,130.6,2.16
28/12/2020,23:00:00,978.6,12.9,2.3,75.6,3.5,78.3,148.5,196.5,1.40
29/12/2020,23:00:00,980.7,13.8,5.1,70.6,0.1,54.5,6.2,152.7,1.62
30/12/2020,23:00:00,981.1,14.1,5.1,64.9,0.0,68.0,0.0,188.9,1.65
31/12/2020,23:00:00,978.7,14.6,11.4,59.2,0.0,114.2,0.0,123.1,3.57
01/01/2021,23:00:00,979.7,13.3,7.9,73.3,0.2,62.9,28.8,151.2,2.24
02/01/2021,23:00:00,981.7,14.0,5.2,67.1,0.0,91.3,1.2,214.4,1.74
03/01/2021,23:00:00,982.1,14.9,3.0,69.8,0.0,108.7,0.0,200.9,1.69
04/01/2021,23:00:00,976.2,15.4,9.6,69.3,4.6,95.2,143.9,181.7,2.82
05/01/2021,23:00:00,981.0,12.2,5.3,70.6,0.2,131.0,6.1,243.5,1.81
06/01/2021,23:00:00,981.2,12.1,5.1,70.6,0.0,132.6,0.0,246.2,0.07
07/01/2021,23:00:00,983.2,12.7,6.0,79.7,0.0,97.1,0.0,246.5,1.27
08/01/2021,23:00:00,980.2,16.1,4.3,60.0,0.0,121.0,0.0,198.1,3.16
09/01/2021,23:00:00,978.4,20.1,8.9,50.9,0.0,83.5,0.0,141.7,4.23
10/01/2021,23:00:00,981.1,22.9,2.3,40.2,0.0,91.3,0.0,174.1,2.98
11/01/2021,23:00:00,979.3,23.5,5.0,37.1,0.0,112.9,0.0,129.4,5.58
12/01/2021,23:00:00,972.9,18.9,11.7,55.9,0.2,57.7,28.8,109.4,4.98
13/01/2021,23:00:00,972.7,12.0,3.4,75.7,3.5,88.2,174.8,208.9,1.30
14/01/2021,23:00:00,974.3,10.2,3.1,71.7,5.7,123.0,266.4,212.0,1.62
15/01/2021,23:00:00,973.6,10.8,1.4,90.8,11.2,30.8,356.3,146.1,0.48
16/01/2021,23:00:00,970.0,9.3,1.6,96.3,16.6,26.1,705.2,177.0,0.33
17/01/2021,23:00:00,975.4,6.8,1.9,80.4,2.0,90.9,173.4,156.6,0.94
18/01/2021,23:00:00,977.5,5.7,2.3,91.6,27.1,23.2,840.5,162.4,0.19
19/01/2021,23:00:00,984.3,5.7,1.2,83.1,4.6,83.1,180.5,200.5,0.77
20/01/2021,23:00:00,990.2,8.3,3.4,68.4,0.1,136.2,6.2,245.6,1.58
21/01/2021,23:00:00,991.3,11.2,2.7,67.7,0.0,86.4,0.0,210.0,1.57
22/01/2021,23:00:00,988.2,11.7,3.8,73.1,0.0,71.4,0.0,189.4,1.29
23/01/2021,23:00:00,981.8,11.5,5.0,66.5,0.0,57.9,0.0,162.5,1.71
24/01/2021,23:00:00,977.5,13.6,11.8,67.7,3.6,121.7,86.3,116.1,3.08
25/01/2021,23:00:00,976.0,14.1,7.1,71.1,0.7,104.1,32.5,149.1,2.42
26/01/2021,23:00:00,972.5,14.2,11.4,67.9,8.7,127.1,116.3,128.1,3.18
27/01/2021,23:00:00,971.9,8.2,1.6,75.5,9.2,58.1,293.6,196.9,0.71
28/01/2021,23:00:00,976.6,6.9,1.7,75.1,2.7,60.2,271.3,189.1,0.90
29/01/2021,23:00:00,978.2,10.9,3.6,72.5,0.1,102.1,11.1,190.4,1.33
30/01/2021,23:00:00,971.6,14.7,3.6,74.2,0.0,92.9,0.0,179.5,1.60
31/01/2021,23:00:00,972.3,16.2,9.4,51.1,0.0,144.8,0.0,143.6,5.01
01/02/2021,23:00:00,971.4,16.2,16.0,61.0,0.0,76.4,0.0,124.1,4.54
02/02/2021,23:00:00,976.1,13.1,5.6,78.2,0.0,95.2,0.0,221.3,1.48
03/02/2021,23:00:00,979.5,12.0,7.1,79.5,0.0,136.6,0.0,211.4,1.50
04/02/2021,23:00:00,981.9,12.9,3.8,78.4,0.0,125.3,0.0,226.3,1.55
05/02/2021,23:00:00,982.0,13.0,3.6,78.3,0.0,124.8,0.0,227.0,0.06
06/02/2021,23:00:00,982.8,17.7,11.8,42.1,0.0,154.2,0.0,92.5,6.16
07/02/2021,23:00:00,979.9,18.3,8.6,34.4,0.0,114.9,0.0,110.7,6.22
08/02/2021,23:00:00,974.5,17.4,10.2,52.7,0.0,80.1,0.0,139.9,4.57
09/02/2021,23:00:00,980.1,14.9,9.3,66.4,0.0,143.6,0.0,145.9,3.01
10/02/2021,23:00:00,980.9,15.9,8.4,51.6,0.0,162.8,0.0,135.6,4.78
11/02/2021,23:00:00,977.3,16.7,11.6,47.3,0.0,150.5,0.0,126.7,6.10
12/02/2021,23:00:00,980.9,13.2,6.0,71.8,0.0,161.6,0.0,209.7,2.27
13/02/2021,23:00:00,981.0,13.2,3.5,66.9,0.0,155.2,0.0,185.4,2.58
14/02/2021,23:00:00,977.3,12.5,5.4,78.2,15.9,143.9,489.1,138.9,1.99
15/02/2021,23:00:00,980.2,4.5,3.9,95.6,54.3,20.5,1287.8,149.6,0.20
16/02/2021,23:00:00,981.6,2.7,3.0,84.3,6.5,28.1,314.0,42.7,0.40
17/02/2021,23:00:00,983.8,4.5,1.8,75.1,0.4,63.8,39.9,65.4,0.79
18/02/2021,23:00:00,983.6,9.0,2.5,76.6,0.0,71.3,1.2,211.5,1.02
19/02/2021,23:00:00,988.3,9.5,7.0,68.7,0.0,158.0,0.0,236.0,1.96
20/02/2021,23:00:00,988.3,10.9,4.5,68.8,0.0,164.7,0.0,242.0,2.09
21/02/2021,23:00:00,987.2,10.0,1.6,84.3,6.3,58.4,316.5,114.5,0.89
22/02/2021,23:00:00,990.5,10.0,2.3,80.6,0.3,64.7,13.5,137.5,0.89
23/02/2021,23:00:00,991.4,10.5,7.1,75.2,0.0,179.3,0.0,216.0,1.67
24/02/2021,23:00:00,991.3,12.9,7.3,61.6,0.0,185.1,0.0,250.6,2.44
25/02/2021,23:00:00,990.3,11.3,2.4,79.3,0.0,41.6,0.0,122.8,0.77
26/02/2021,23:00:00,987.7,11.7,4.4,81.3,0.0,110.6,0.0,185.2,1.14
27/02/2021,23:00:00,983.2,12.1,5.8,73.4,0.0,177.7,0.0,225.9,2.09
28/02/2021,23:00:00,984.4,12.5,6.9,81.7,0.0,143.9,0.0,182.7,1.51
01/03/2021,23:00:00,987.3,10.6,5.3,65.5,0.0,187.5,0.0,210.0,2.03
02/03/2021,23:00:00,989.4,9.4,2.1,67.6,0.2,68.8,28.8,246.2,1.13
03/03/2021,23:00:00,988.7,9.8,4.4,67.7,0.0,53.1,1.2,204.0,1.34
04/03/2021,23:00:00,986.5,11.3,7.2,69.9,0.0,193.6,0.0,249.1,2.02
05/03/2021,23:00:00,983.5,13.3,6.7,48.9,0.0,200.5,0.0,153.9,4.16
06/03/2021,23:00:00,983.6,15.4,7.3,51.1,0.0,190.4,0.0,138.4,4.57
07/03/2021,23:00:00,983.6,15.5,7.4,51.3,0.0,190.0,0.0,137.9,0.19
08/03/2021,23:00:00,980.1,11.1,2.6,86.0,0.2,77.4,28.8,171.2,0.94
09/03/2021,23:00:00,974.4,12.8,6.4,83.6,0.0,103.2,1.2,190.3,1.40
10/03/2021,23:00:00,974.6,13.4,3.9,89.6,0.0,76.0,0.0,154.6,1.08
11/03/2021,23:00:00,977.4,11.3,4.5,81.1,3.8,91.6,230.2,164.6,1.28
12/03/2021,23:00:00,983.5,10.4,6.3,69.5,0.2,201.9,9.8,205.6,2.11
13/03/2021,23:00:00,981.4,12.9,5.3,76.0,0.0,176.4,0.0,228.9,2.03
14/03/2021,23:00:00,977.8,13.0,4.0,82.8,2.1,86.8,230.2,190.3,1.21
15/03/2021,23:00:00,972.0,12.4,3.6,73.2,2.8,131.0,182.5,182.7,1.75
16/03/2021,23:00:00,971.9,10.7,3.6,73.1,3.6,149.8,237.5,181.2,1.76
17/03/2021,23:00:00,973.7,9.4,1.9,79.0,5.0,112.2,269.7,179.2,1.27
18/03/2021,23:00:00,978.1,10.1,4.0,69.6,0.4,133.7,39.9,220.1,1.67
19/03/2021,23:00:00,976.7,13.1,10.3,67.2,1.5,196.5,145.1,124.0,3.37
20/03/2021,23:00:00,974.1,14.2,4.1,79.5,0.3,218.8,34.9,216.2,2.77
21/03/2021,23:00:00,968.1,15.5,5.0,64.8,0.0,196.1,1.2,214.1,3.14
22/03/2021,23:00:00,966.7,15.5,4.5,67.8,0.0,183.1,0.0,155.1,3.04
23/03/2021,23:00:00,967.6,10.5,3.8,83.0,29.3,126.2,546.6,190.1,1.65
24/03/2021,23:00:00,974.4,7.5,3.7,88.0,22.6,114.4,513.4,130.3,1.22
25/03/2021,23:00:00,980.3,5.6,1.4,84.5,7.8,83.5,337.4,166.7,1.01
26/03/2021,23:00:00,987.2,7.3,5.5,66.8,0.7,228.1,71.1,225.7,2.27
27/03/2021,23:00:00,990.5,9.4,3.5,74.2,0.0,131.6,2.5,228.7,1.78
28/03/2021,23:00:00,991.6,11.7,5.7,71.2,0.0,247.2,0.0,237.4,2.97
29/03/2021,23:00:00,989.9,12.6,8.1,70.8,0.0,240.4,0.0,233.8,2.87
30/03/2021,23:00:00,986.3,11.9,10.1,69.6,0.0,159.6,0.0,215.1,2.80
31/03/2021,23:00:00,981.3,8.5,3.0,82.5,20.7,88.3,604.2,141.6,1.28
01/04/2021,23:00:00,979.9,9.2,3.0,77.8,4.7,113.4,256.9,139.3,1.43
02/04/2021,23:00:00,981.3,12.1,5.5,68.3,0.2,227.1,9.9,227.7,2.98
03/04/2021,23:00:00,979.6,15.5,8.0,58.7,0.0,240.4,0.0,146.6,5.08
04/04/2021,23:00:00,975.2,21.5,10.2,32.5,0.0,152.9,0.0,109.0,8.75
05/04/2021,23:00:00,974.2,21.5,5.5,34.9,0.0,96.6,0.0,153.1,5.36
06/04/2021,23:00:00,974.2,21.5,5.3,35.1,0.0,94.3,0.0,155.1,0.21
07/04/2021,23:00:00,975.8,15.4,4.3,62.3,0.0,257.3,1.2,200.0,3.93
08/04/2021,23:00:00,979.6,14.3,3.8,67.5,0.2,196.9,28.8,181.0,3.25
09/04/2021,23:00:00,986.6,9.7,5.2,60.7,0.2,173.3,30.0,189.1,2.15
10/04/2021,23:00:00,987.6,9.6,6.9,55.1,0.0,257.1,1.2,195.4,2.82
11/04/2021,23:00:00,986.2,10.9,8.5,60.8,0.0,259.4,0.0,235.8,2.98
12/04/2021,23:00:00,985.4,12.9,7.3,55.5,0.0,259.1,0.0,238.0,3.34
13/04/2021,23:00:00,982.3,15.3,6.0,47.8,0.0,253.4,0.0,214.3,5.09
14/04/2021,23:00:00,979.5,16.1,5.2,51.7,0.0,246.9,0.0,233.9,4.90
15/04/2021,23:00:00,978.5,14.7,6.9,69.1,0.0,231.2,0.0,247.5,2.88
16/04/2021,23:00:00,976.6,14.7,7.6,69.5,0.0,212.8,0.0,217.0,2.51
17/04/2021,23:00:00,972.2,18.2,5.3,78.7,0.0,89.8,0.0,158.9,1.53
18/04/2021,23:00:00,976.1,22.3,4.6,57.2,0.0,152.7,0.0,191.2,3.12
19/04/2021,23:00:00,978.0,15.0,6.1,78.3,1.5,144.4,115.1,205.1,2.12
20/04/2021,23:00:00,979.8,13.6,5.7,71.6,0.3,237.5,33.7,219.2,2.74
21/04/2021,23:00:00,982.7,13.3,7.9,72.0,0.0,210.2,1.2,225.3,2.82
22/04/2021,23:00:00,984.6,14.9,3.7,67.3,0.0,266.2,0.0,223.7,3.80
23/04/2021,23:00:00,982.3,16.2,2.9,61.8,0.0,255.0,0.0,156.6,3.90
24/04/2021,23:00:00,977.5,15.1,5.5,85.9,0.0,84.8,0.0,159.1,1.21
25/04/2021,23:00:00,976.3,13.6,4.9,88.1,0.0,78.5,0.0,145.2,1.04
26/04/2021,23:00:00,979.5,14.8,7.5,58.7,0.0,267.5,0.0,225.0,3.79
27/04/2021,23:00:00,977.3,16.9,2.9,47.7,0.0,241.8,0.0,170.7,4.40
28/04/2021,23:00:00,975.3,25.8,2.4,30.8,0.0,149.8,0.0,178.4,4.86
29/04/2021,23:00:00,976.4,28.2,2.0,21.1,0.0,105.9,0.0,170.2,4.64
30/04/2021,23:00:00,979.1,25.5,3.3,37.8,0.0,262.8,0.0,154.2,5.66
01/05/2021,23:00:00,979.2,26.2,1.5,37.0,0.0,244.1,0.0,104.1,4.64
02/05/2021,23:00:00,978.4,31.1,0.8,23.7,0.0,227.1,0.0,186.4,4.62
03/05/2021,23:00:00,977.4,30.1,4.0,25.8,0.0,263.6,0.0,173.3,6.92
04/05/2021,23:00:00,976.6,23.8,4.8,44.2,0.0,264.6,0.0,155.4,5.64
05/05/2021,23:00:00,976.5,22.4,5.3,42.4,0.0,272.7,0.0,171.6,6.85
06/05/2021,23:00:00,976.5,22.4,5.4,42.3,0.0,273.1,0.0,172.3,0.28
07/05/2021,23:00:00,976.8,21.4,6.4,53.8,0.0,250.6,0.0,165.3,5.28
08/05/2021,23:00:00,973.7,21.3,3.5,65.2,0.0,261.2,0.0,143.2,4.70
09/05/2021,23:00:00,980.2,19.0,10.2,67.1,0.0,281.0,0.0,206.2,4.13
10/05/2021,23:00:00,981.0,16.6,11.6,55.7,0.0,288.4,0.0,223.7,4.84
11/05/2021,23:00:00,977.7,16.7,11.6,52.4,0.0,290.6,0.0,230.7,5.34
12/05/2021,23:00:00,974.8,19.6,4.7,42.9,0.0,268.5,0.0,186.6,5.48
13/05/2021,23:00:00,974.7,19.2,6.3,52.8,0.0,285.9,0.0,247.0,5.37
14/05/2021,23:00:00,978.0,19.2,5.4,46.9,0.0,294.9,0.0,227.4,5.78
15/05/2021,23:00:00,976.1,20.0,6.4,46.4,0.0,262.2,0.0,181.2,5.87
16/05/2021,23:00:00,974.8,17.8,6.2,71.5,0.0,248.7,0.0,216.4,3.45
17/05/2021,23:00:00,976.1,20.0,2.9,55.9,0.0,284.5,0.0,192.6,4.99
18/05/2021,23:00:00,976.7,24.1,3.4,39.2,0.0,287.4,0.0,146.1,6.70
19/05/2021,23:00:00,976.7,22.3,3.9,37.4,0.0,295.0,0.0,120.0,6.64
20/05/2021,23:00:00,975.6,22.3,5.9,39.8,0.0,293.1,0.0,163.3,7.27
21/05/2021,23:00:00,978.5,17.8,10.4,60.6,0.0,297.8,0.0,224.4,4.95
22/05/2021,23:00:00,982.5,18.8,9.0,48.4,0.0,299.9,0.0,260.3,6.13
23/05/2021,23:00:00,981.3,20.4,4.3,46.9,0.0,300.4,0.0,200.3,5.81
24/05/2021,23:00:00,981.3,23.5,6.2,40.9,0.0,295.1,0.0,146.6,7.59
25/05/2021,23:00:00,979.8,24.2,2.7,44.6,0.0,288.6,0.0,98.4,5.81
26/05/2021,23:00:00,977.0,25.5,1.9,41.5,0.0,285.8,0.0,95.0,5.77
27/05/2021,23:00:00,975.3,23.2,2.2,42.4,0.0,301.5,0.0,195.1,5.51
28/05/2021,23:00:00,975.9,22.1,3.2,51.3,0.0,285.1,0.0,219.6,5.48
29/05/2021,23:00:00,977.1,20.6,7.8,66.3,0.0,283.5,0.0,221.6,4.26
30/05/2021,23:00:00,976.5,19.3,2.9,79.1,0.6,161.5,86.3,153.1,2.76
31/05/2021,23:00:00,976.3,21.3,4.8,53.4,0.0,288.9,3.7,222.6,6.03
01/06/2021,23:00:00,976.6,18.9,7.7,62.4,0.0,268.2,0.0,236.9,4.52
02/06/2021,23:00:00,980.6,18.0,11.4,73.3,0.0,193.2,0.0,233.8,3.34
03/06/2021,23:00:00,983.1,18.9,6.0,57.5,0.0,292.3,0.0,260.1,5.04
04/06/2021,23:00:00,984.3,20.0,5.8,52.6,0.0,296.3,0.0,254.5,5.57
05/06/2021,23:00:00,984.3,20.0,5.8,52.5,0.0,296.3,0.0,254.3,0.23
06/06/2021,23:00:00,981.4,21.8,3.0,54.7,0.0,279.7,0.0,141.5,5.16
07/06/2021,23:00:00,980.2,24.8,1.4,42.5,0.0,284.2,0.0,104.5,5.28
08/06/2021,23:00:00,976.8,25.5,1.3,42.1,0.0,289.2,0.0,141.7,5.23
09/06/2021,23:00:00,975.2,20.9,4.6,78.7,0.0,254.8,0.0,166.6,4.11
10/06/2021,23:00:00,975.1,20.9,3.9,76.4,0.0,287.4,0.0,133.4,4.46
11/06/2021,23:00:00,976.0,21.5,3.3,69.2,0.0,295.5,0.0,116.1,5.04
12/06/2021,23:00:00,977.7,22.0,3.1,64.4,0.0,297.0,0.0,131.0,5.23
13/06/2021,23:00:00,977.7,21.4,3.5,72.8,0.0,290.3,0.0,126.5,4.70
14/06/2021,23:00:00,975.5,20.9,4.1,78.0,0.0,252.2,0.0,183.1,4.30
15/06/2021,23:00:00,976.3,18.2,5.1,80.8,0.6,216.2,28.8,213.4,2.78
16/06/2021,23:00:00,978.3,19.3,4.0,68.3,0.0,289.1,1.2,174.8,4.84
17/06/2021,23:00:00,980.8,21.0,3.3,56.0,0.0,297.9,0.0,128.6,5.36
18/06/2021,23:00:00,979.4,21.3,3.5,65.3,0.0,298.4,0.0,140.6,5.02
19/06/2021,23:00:00,976.4,23.8,3.3,58.9,0.0,292.2,0.0,112.9,5.50
20/06/2021,23:00:00,974.8,25.4,4.0,54.3,0.0,289.9,0.0,105.9,6.05
21/06/2021,23:00:00,975.6,25.9,2.7,58.0,0.0,284.8,0.0,87.0,5.42
22/06/2021,23:00:00,977.1,28.6,1.5,46.2,0.0,260.4,0.0,75.7,5.39
23/06/2021,23:00:00,978.2,30.5,1.5,39.2,0.0,273.8,0.0,120.4,5.94
24/06/2021,23:00:00,979.2,29.2,2.2,47.6,0.0,286.7,0.0,102.0,6.11
25/06/2021,23:00:00,978.0,29.2,2.0,49.4,0.0,280.2,0.0,51.1,5.94
26/06/2021,23:00:00,976.1,31.3,1.8,41.7,0.0,278.3,0.0,90.5,6.36
27/06/2021,23:00:00,975.6,30.0,1.8,46.7,0.0,283.7,0.0,128.5,5.80
28/06/2021,23:00:00,978.0,28.0,3.6,54.2,0.0,288.6,0.0,84.5,6.63
29/06/2021,23:00:00,978.3,28.2,8.8,48.7,0.0,289.5,0.0,103.8,8.21
30/06/2021,23:00:00,977.2,29.0,2.2,43.7,0.0,287.6,0.0,92.1,6.32
01/07/2021,23:00:00,976.2,33.3,1.3,28.7,0.0,271.0,0.0,129.5,6.38
02/07/2021,23:00:00,973.9,30.7,2.8,34.1,0.0,297.5,0.0,84.6,6.93
03/07/2021,23:00:00,974.2,26.3,8.7,59.4,0.0,296.3,0.0,139.7,7.06
04/07/2021,23:00:00,975.2,25.4,4.5,60.7,0.0,294.9,0.0,123.8,5.91
05/07/2021,23:00:00,975.2,25.3,4.3,60.8,0.0,294.8,0.0,123.1,0.24
06/07/2021,23:00:00,972.6,25.6,9.2,64.4,0.0,283.0,0.0,136.2,6.90
07/07/2021,23:00:00,976.1,26.5,11.8,58.6,0.0,285.7,0.0,180.0,7.56
08/07/2021,23:00:00,978.1,26.0,15.6,71.6,0.0,295.2,0.0,173.9,6.93
09/07/2021,23:00:00,978.0,24.9,16.9,71.7,0.0,200.9,0.0,287.2,5.88
10/07/2021,23:00:00,975.2,25.2,13.0,55.8,0.0,289.4,0.0,222.0,7.48
11/07/2021,23:00:00,974.2,25.9,4.6,49.3,0.0,288.3,0.0,151.2,6.83
12/07/2021,23:00:00,975.3,26.6,3.5,46.6,0.0,289.1,0.0,96.6,6.70
13/07/2021,23:00:00,975.4,27.0,2.6,43.8,0.0,287.5,0.0,61.9,6.36
14/07/2021,23:00:00,975.1,27.4,4.0,47.1,0.0,288.8,0.0,78.5,6.87
15/07/2021,23:00:00,974.1,27.4,7.2,52.1,0.0,287.0,0.0,117.6,7.31
16/07/2021,23:00:00,971.9,28.2,4.8,48.4,0.0,285.5,0.0,89.0,6.63
17/07/2021,23:00:00,969.8,26.4,4.5,54.6,0.0,292.0,0.0,114.8,6.31
18/07/2021,23:00:00,968.1,25.5,4.8,61.3,0.0,289.9,0.0,150.2,6.35
19/07/2021,23:00:00,971.2,26.2,3.2,60.6,0.0,288.0,0.0,182.2,5.80
20/07/2021,23:00:00,973.8,26.3,5.9,63.1,0.0,284.4,0.0,151.5,6.56
21/07/2021,23:00:00,975.1,26.0,7.9,70.8,0.0,278.7,0.0,126.8,5.83
22/07/2021,23:00:00,975.5,26.2,8.9,64.8,0.0,264.9,0.0,126.6,6.46
23/07/2021,23:00:00,975.5,24.5,13.2,61.4,0.0,241.9,0.0,283.5,7.07
24/07/2021,23:00:00,975.3,24.1,13.4,62.2,0.0,276.3,0.0,241.9,7.19
25/07/2021,23:00:00,976.3,24.0,11.9,59.8,0.0,258.1,0.0,288.0,6.47
26/07/2021,23:00:00,978.5,24.2,12.2,63.5,0.0,251.8,0.0,228.2,6.53
27/07/2021,23:00:00,979.0,25.7,11.1,59.2,0.0,277.3,0.0,156.9,7.24
28/07/2021,23:00:00,976.6,26.6,9.8,55.8,0.0,277.1,0.0,127.2,7.31
29/07/2021,23:00:00,975.2,29.1,2.7,41.8,0.0,280.3,0.0,44.4,6.60
30/07/2021,23:00:00,973.9,30.2,2.7,41.6,0.0,277.0,0.0,51.0,6.93
31/07/2021,23:00:00,972.4,32.6,1.7,31.8,0.0,269.2,0.0,131.8,6.49
01/08/2021,23:00:00,973.4,31.3,1.7,35.7,0.0,272.5,0.0,121.6,6.02
02/08/2021,23:00:00,974.7,31.5,2.0,33.4,0.0,270.0,0.0,85.4,6.49
03/08/2021,23:00:00,975.8,34.0,2.2,27.0,0.0,267.6,0.0,61.4,7.29
04/08/2021,23:00:00,975.8,34.2,2.2,26.7,0.0,267.5,0.0,60.5,0.30
05/08/2021,23:00:00,975.2,33.6,1.5,24.3,0.0,262.0,0.0,117.5,6.31
06/08/2021,23:00:00,971.1,31.6,4.5,37.1,0.0,264.6,0.0,108.0,6.39
07/08/2021,23:00:00,972.6,27.0,9.8,61.9,0.0,253.4,0.0,140.6,6.68
08/08/2021,23:00:00,977.6,26.8,7.2,48.3,0.0,278.1,0.0,136.8,7.12
09/08/2021,23:00:00,979.7,27.7,6.9,45.7,0.0,274.0,0.0,86.0,7.31
10/08/2021,23:00:00,978.8,29.4,2.2,39.2,0.0,264.6,0.0,37.9,6.24
11/08/2021,23:00:00,976.6,30.8,1.9,35.3,0.0,245.4,0.0,51.2,6.06
12/08/2021,23:00:00,977.0,27.5,10.3,60.3,0.0,251.7,0.0,138.2,6.85
13/08/2021,23:00:00,979.5,26.6,13.1,55.9,0.0,266.1,0.0,241.4,7.47
14/08/2021,23:00:00,979.7,25.2,16.2,60.0,0.0,257.5,0.0,286.9,7.87
15/08/2021,23:00:00,977.7,24.0,15.8,63.0,0.0,224.2,0.0,257.5,6.49
16/08/2021,23:00:00,977.2,24.1,4.0,55.4,0.0,269.4,0.0,156.8,5.65
17/08/2021,23:00:00,975.8,25.9,7.8,62.7,0.0,250.1,0.0,131.4,6.23
18/08/2021,23:00:00,973.2,27.9,8.0,57.0,0.0,251.9,0.0,142.2,6.43
19/08/2021,23:00:00,972.5,26.3,10.2,68.8,0.0,247.6,0.0,142.5,5.64
20/08/2021,23:00:00,975.2,25.4,15.8,72.9,0.0,248.3,0.0,191.9,6.16
21/08/2021,23:00:00,976.9,25.7,5.8,49.5,0.0,256.3,0.0,152.4,6.62
22/08/2021,23:00:00,977.4,25.3,6.9,54.1,0.0,236.7,0.0,265.5,5.99
23/08/2021,23:00:00,976.3,24.4,13.6,64.8,0.0,219.7,0.0,272.7,6.79
24/08/2021,23:00:00,975.5,24.0,6.2,65.3,0.0,180.2,0.0,173.1,4.17
25/08/2021,23:00:00,975.8,25.0,2.3,46.6,0.0,256.3,0.0,102.5,5.23
26/08/2021,23:00:00,975.8,27.4,1.9,47.9,0.0,246.5,0.0,96.5,5.25
27/08/2021,23:00:00,975.6,28.4,7.4,49.6,0.0,237.9,0.0,115.8,6.25
28/08/2021,23:00:00,973.9,26.9,12.1,58.2,0.0,250.3,0.0,153.8,7.33
29/08/2021,23:00:00,972.3,25.9,11.8,68.9,0.0,216.9,0.0,175.3,6.22
30/08/2021,23:00:00,974.4,26.5,12.7,68.1,0.0,243.4,0.0,168.7,6.34
31/08/2021,23:00:00,976.4,25.1,9.3,70.0,0.0,202.2,0.0,165.4,5.32
01/09/2021,23:00:00,976.9,25.0,6.9,71.9,0.0,242.1,0.0,140.8,5.31
02/09/2021,23:00:00,978.3,24.2,6.7,67.9,0.0,232.1,0.0,141.0,4.86
03/09/2021,23:00:00,978.4,24.2,6.6,67.8,0.0,231.6,0.0,141.1,0.20
04/09/2021,23:00:00,978.0,23.1,10.0,57.1,0.0,235.1,0.0,183.1,6.68
05/09/2021,23:00:00,977.5,22.9,8.3,60.7,0.0,226.6,0.0,186.3,5.92
06/09/2021,23:00:00,978.4,22.3,15.0,66.4,0.0,189.7,0.0,278.6,6.36
07/09/2021,23:00:00,979.0,20.2,10.3,83.2,7.7,46.7,201.4,231.4,2.04
08/09/2021,23:00:00,979.2,19.4,8.7,93.0,21.0,69.7,353.9,185.3,0.96
09/09/2021,23:00:00,979.5,20.4,10.2,85.2,1.1,170.4,43.5,173.9,2.30
10/09/2021,23:00:00,980.4,21.1,5.1,75.3,0.0,226.1,1.2,206.9,3.79
11/09/2021,23:00:00,978.8,21.4,4.3,78.3,0.0,222.3,0.0,175.1,3.62
12/09/2021,23:00:00,974.6,21.3,6.1,66.5,0.0,203.4,0.0,198.6,4.29
13/09/2021,23:00:00,974.2,21.8,6.5,61.4,0.0,202.3,0.0,239.5,5.06
14/09/2021,23:00:00,976.4,21.8,8.3,67.5,0.0,156.2,0.0,239.1,3.96
15/09/2021,23:00:00,979.8,23.0,3.8,57.0,0.0,217.3,0.0,150.8,4.40
16/09/2021,23:00:00,981.0,23.2,5.1,55.8,0.0,219.4,0.0,135.6,5.50
17/09/2021,23:00:00,979.7,24.9,3.3,52.0,0.0,215.4,0.0,122.0,4.97
18/09/2021,23:00:00,978.5,27.6,1.3,39.7,0.0,204.0,0.0,59.4,4.10
19/09/2021,23:00:00,979.4,28.9,1.4,35.9,0.0,205.7,0.0,71.5,4.74
20/09/2021,23:00:00,979.2,30.2,1.2,28.8,0.0,215.5,0.0,92.7,4.76
21/09/2021,23:00:00,980.2,28.7,1.4,32.8,0.0,213.4,0.0,84.7,4.55
22/09/2021,23:00:00,978.3,24.6,7.6,61.6,0.0,210.3,0.0,176.2,4.88
23/09/2021,23:00:00,977.8,19.9,10.4,72.7,0.0,75.4,0.0,256.6,2.72
24/09/2021,23:00:00,980.9,18.3,9.9,60.5,0.0,218.5,0.0,260.8,4.51
25/09/2021,23:00:00,982.0,20.1,6.0,62.4,0.0,219.5,0.0,173.0,4.29
26/09/2021,23:00:00,982.3,21.5,5.2,60.9,0.0,215.2,0.0,152.4,4.50
27/09/2021,23:00:00,979.7,22.4,6.2,51.3,0.0,212.1,0.0,158.0,5.57
28/09/2021,23:00:00,978.5,22.9,4.3,60.4,0.0,201.2,0.0,154.5,4.35
29/09/2021,23:00:00,979.3,20.7,8.4,78.6,0.0,148.0,0.0,198.0,2.65
30/09/2021,23:00:00,980.8,19.4,12.3,72.8,0.0,166.1,0.0,240.5,3.46
01/10/2021,23:00:00,981.1,18.1,22.8,67.5,0.0,80.9,0.0,267.2,4.27
02/10/2021,23:00:00,981.0,17.7,16.5,67.8,0.0,151.7,0.0,280.1,3.69
03/10/2021,23:00:00,981.0,17.7,16.2,67.8,0.0,154.9,0.0,280.6,0.15
04/10/2021,23:00:00,983.3,17.8,10.3,67.5,0.0,190.1,1.2,230.2,3.37
05/10/2021,23:00:00,983.0,18.1,9.3,66.1,0.0,199.0,0.0,233.2,3.61
06/10/2021,23:00:00,982.3,17.7,8.7,70.2,0.0,190.8,0.0,202.7,3.16
07/10/2021,23:00:00,979.4,18.1,5.7,64.4,0.0,187.5,0.0,227.6,3.53
08/10/2021,23:00:00,977.9,21.0,1.8,64.5,0.0,186.4,0.0,172.8,3.44
09/10/2021,23:00:00,979.0,22.7,2.1,63.5,0.0,193.5,0.0,136.3,3.98
10/10/2021,23:00:00,980.3,21.3,3.4,70.0,0.0,182.1,0.0,153.4,3.41
11/10/2021,23:00:00,978.7,22.6,2.3,62.1,0.0,130.0,0.0,137.6,2.81
12/10/2021,23:00:00,974.6,19.0,2.8,72.8,5.6,86.8,143.9,179.6,1.53
13/10/2021,23:00:00,975.9,18.6,5.0,72.7,0.8,82.6,63.7,195.9,1.99
14/10/2021,23:00:00,975.5,19.4,3.1,69.8,3.3,95.6,146.3,193.4,2.32
15/10/2021,23:00:00,973.1,17.5,2.9,81.8,22.6,85.7,322.6,161.3,1.52
16/10/2021,23:00:00,976.4,16.8,3.7,77.5,4.8,117.4,214.9,198.4,1.87
17/10/2021,23:00:00,980.2,17.9,6.1,76.3,0.2,104.6,8.6,211.7,2.29
18/10/2021,23:00:00,982.6,16.8,5.1,84.8,4.0,77.1,57.5,165.6,1.16
19/10/2021,23:00:00,986.6,16.7,9.3,78.9,0.2,133.6,2.5,171.2,1.77
20/10/2021,23:00:00,988.3,16.3,7.9,70.6,0.0,141.4,0.0,177.5,2.11
21/10/2021,23:00:00,986.2,16.8,4.5,66.1,0.0,172.0,0.0,218.4,2.80
22/10/2021,23:00:00,984.5,18.0,4.8,77.0,0.0,97.7,0.0,214.7,1.57
23/10/2021,23:00:00,984.6,19.1,3.5,69.6,0.0,154.2,0.0,165.7,2.93
24/10/2021,23:00:00,984.0,19.6,6.5,71.5,0.0,135.8,0.0,126.6,3.34
25/10/2021,23:00:00,984.4,15.7,1.9,86.2,5.9,21.6,230.2,75.5,0.45
26/10/2021,23:00:00,982.6,14.0,1.6,87.1,10.0,17.9,211.2,106.3,0.27
27/10/2021,23:00:00,981.8,14.4,1.1,88.6,0.4,18.4,8.6,78.6,0.27
28/10/2021,23:00:00,981.8,14.5,1.6,94.3,3.3,11.2,374.0,131.5,0.16
29/10/2021,23:00:00,980.6,14.5,2.3,94.7,6.5,17.5,505.1,155.7,0.20
30/10/2021,23:00:00,980.4,14.4,1.5,87.7,7.0,29.2,251.1,159.8,0.49
31/10/2021,23:00:00,978.7,15.2,4.5,87.9,4.9,53.0,125.1,170.1,0.81
01/11/2021,23:00:00,977.5,15.4,5.2,85.9,3.9,108.8,92.0,170.4,1.36